FW3849 Weather Reports


time (UTC)temp
F
wind
direction
speed
knots
gust
knots
rain 1hr
in
rain 24hr
in
rain mn
in
humidity
%
barometer
mb
20260831002059 96 187 6.1 13.0 0.00 0.00 0.00 22 1009.0
20260831001604 96 164 5.2 12.2 0.00 0.00 0.00 22 1008.9
20260831001059 96 200 7.0 11.3 0.00 0.00 0.00 21 1008.9
20260831000557 97 191 4.3 10.4 0.00 0.00 0.00 19 1008.9
20260830235054 97 199 4.3 12.2 0.00 0.00 0.00 20 1008.9
20260830234553 97 187 5.2 11.3 0.00 0.00 0.00 20 1008.9
20260830234053 97 201 7.0 11.3 0.00 0.00 0.00 20 1008.9
20260830233553 97 214 5.2 11.3 0.00 0.00 0.00 20 1009.0
20260830233103 97 171 7.0 11.3 0.00 0.00 0.00 20 1009.0
20260830232556 97 193 7.0 13.9 0.00 0.00 0.00 21 1008.9
20260830232053 97 219 8.7 13.9 0.00 0.00 0.00 21 1009.0
20260830231558 98 198 8.7 13.0 0.00 0.00 0.00 21 1008.9
20260830231052 97 191 6.1 16.5 0.00 0.00 0.00 21 1009.0
20260830230552 97 190 10.4 16.5 0.00 0.00 0.00 21 1009.0
20260830230053 97 193 8.7 14.8 0.00 0.00 0.00 21 1008.9
20260830225056 98 191 6.1 11.3 0.00 0.00 0.00 20 1008.9
20260830224616 98 200 5.2 8.7 0.00 0.00 0.00 20 1008.9
20260830224056 98 210 6.1 10.4 0.00 0.00 0.00 19 1009.0
20260830223555 98 170 7.0 10.4 0.00 0.00 0.00 20 1009.0
20260830223057 98 154 5.2 13.0 0.00 0.00 0.00 19 1009.0
20260830222559 98 202 7.0 13.0 0.00 0.00 0.00 19 1009.0
20260830222054 98 165 7.8 12.2 0.00 0.00 0.00 19 1009.1
20260830221602 98 233 4.3 8.7 0.00 0.00 0.00 18 1009.2
20260830221053 98 258 5.2 11.3 0.00 0.00 0.00 17 1009.2
20260830220553 98 179 5.2 13.0 0.00 0.00 0.00 18 1009.3
20260830220057 98 213 9.6 13.0 0.00 0.00 0.00 17 1009.3
20260830215051 97 177 6.1 12.2 0.00 0.00 0.00 18 1009.4
20260830214556 98 152 7.0 12.2 0.00 0.00 0.00 18 1009.5
20260830214050 98 152 3.5 12.2 0.00 0.00 0.00 18 1009.4
20260830213549 98 192 7.8 15.6 0.00 0.00 0.00 18 1009.5
20260830213049 98 185 8.7 15.6 0.00 0.00 0.00 18 1009.7
20260830212548 98 181 4.3 12.2 0.00 0.00 0.00 18 1009.7
20260830212051 98 203 6.1 13.0 0.00 0.00 0.00 19 1009.8
20260830211547 97 150 5.2 13.0 0.00 0.00 0.00 18 1009.9
20260830211049 97 190 6.1 13.0 0.00 0.00 0.00 19 1009.8
20260830210546 97 174 7.8 14.8 0.00 0.00 0.00 18 1010.0
20260830210044 97 180 8.7 14.8 0.00 0.00 0.00 20 1010.0
20260830205049 96 164 6.1 16.5 0.00 0.00 0.00 20 1010.3
20260830204546 96 226 7.0 16.5 0.00 0.00 0.00 21 1010.3
20260830204047 97 215 6.1 10.4 0.00 0.00 0.00 22 1010.4
20260830203544 97 191 5.2 13.0 0.00 0.00 0.00 21 1010.5
20260830203043 97 178 6.1 15.6 0.00 0.00 0.00 20 1010.7
20260830202543 97 196 7.8 15.6 0.00 0.00 0.00 21 1010.8
20260830202041 97 154 6.1 12.2 0.00 0.00 0.00 20 1010.8
20260830201542 97 177 5.2 12.2 0.00 0.00 0.00 19 1011.0
20260830201039 96 252 4.3 14.8 0.00 0.00 0.00 20 1011.0
20260830200541 96 216 8.7 16.5 0.00 0.00 0.00 20 1011.2
20260830200038 96 198 6.1 16.5 0.00 0.00 0.00 22 1011.1
20260830195053 96 173 6.1 13.0 0.00 0.00 0.00 22 1011.4
20260830194549 95 164 7.0 13.0 0.00 0.00 0.00 21 1011.4
20260830194051 95 202 7.0 13.9 0.00 0.00 0.00 22 1011.5
20260830193546 95 189 7.8 13.9 0.00 0.00 0.00 23 1011.6
20260830193043 95 201 5.2 13.0 0.00 0.00 0.00 24 1011.7
20260830192542 94 198 2.6 13.0 0.00 0.00 0.00 25 1011.8
20260830192040 94 208 8.7 14.8 0.00 0.00 0.00 25 1011.8
20260830191540 94 213 7.8 14.8 0.00 0.00 0.00 24 1011.8
20260830191039 94 239 7.0 13.0 0.00 0.00 0.00 26 1011.8
20260830190538 94 231 6.1 13.9 0.00 0.00 0.00 25 1012.0
20260830190037 94 271 7.0 16.5 0.00 0.00 0.00 27 1011.9
20260830185024 93 214 6.1 13.0 0.00 0.00 0.00 28 1012.0
20260830184524 93 212 7.0 14.8 0.00 0.00 0.00 28 1012.1
20260830184023 93 227 9.6 15.6 0.00 0.00 0.00 28 1012.1
20260830183522 93 185 9.6 15.6 0.00 0.00 0.00 29 1012.1
20260830183020 92 225 6.1 13.9 0.00 0.00 0.00 30 1012.2
20260830182519 92 210 9.6 14.8 0.00 0.00 0.00 30 1012.5
20260830182018 92 214 9.6 15.6 0.00 0.00 0.00 31 1012.5
20260830181516 92 217 7.0 15.6 0.00 0.00 0.00 31 1012.6
20260830181015 92 196 7.0 16.5 0.00 0.00 0.00 30 1012.7
20260830180513 92 207 8.7 16.5 0.00 0.00 0.00 31 1012.9
20260830180013 92 223 8.7 14.8 0.00 0.00 0.00 30 1012.9
20260830175009 92 218 7.0 14.8 0.00 0.00 0.00 33 1013.0
20260830174510 91 210 9.6 14.8 0.00 0.00 0.00 34 1013.0
20260830174006 91 177 8.7 15.6 0.00 0.00 0.00 34 1013.1
20260830173506 91 205 8.7 16.5 0.00 0.00 0.00 34 1013.1
20260830173005 90 186 7.8 13.9 0.00 0.00 0.00 35 1013.2
20260830172509 90 207 8.7 16.5 0.00 0.00 0.00 35 1013.2
20260830172004 90 179 9.6 16.5 0.00 0.00 0.00 35 1013.3
20260830171504 90 194 7.8 13.9 0.00 0.00 0.00 36 1013.3
20260830171004 90 199 9.6 13.9 0.00 0.00 0.00 36 1013.5
20260830170502 89 186 7.8 13.9 0.00 0.00 0.00 36 1013.4
20260830170002 89 196 8.7 13.9 0.00 0.00 0.00 37 1013.4
20260830165159 88 205 9.6 14.8 0.00 0.00 0.00 38 1013.4
20260830164607 88 245 7.8 13.0 0.00 0.00 0.00 39 1013.4
20260830164057 88 208 7.0 15.6 0.00 0.00 0.00 40 1013.6
20260830163558 88 175 7.8 15.6 0.00 0.00 0.00 40 1013.7
20260830163059 88 208 7.8 13.9 0.00 0.00 0.00 40 1013.6
20260830162556 88 171 7.8 13.9 0.00 0.00 0.00 41 1013.5
20260830162057 87 199 6.1 12.2 0.00 0.00 0.00 43 1013.6
20260830161606 87 202 7.0 12.2 0.00 0.00 0.00 43 1013.6
20260830161052 86 198 7.0 11.3 0.00 0.00 0.00 43 1013.6
20260830160553 86 179 7.0 13.9 0.00 0.00 0.00 45 1013.7
20260830160051 86 198 8.7 13.9 0.00 0.00 0.00 45 1013.7
20260830155059 85 182 3.5 13.0 0.00 0.00 0.00 47 1013.7
20260830154558 85 184 9.6 13.0 0.00 0.00 0.00 46 1013.7
20260830154059 85 195 6.1 10.4 0.00 0.00 0.00 47 1013.7
20260830153600 84 162 4.3 11.3 0.00 0.00 0.00 48 1013.7
20260830153053 84 179 7.8 11.3 0.00 0.00 0.00 48 1013.8
20260830152552 83 189 5.2 8.7 0.00 0.00 0.00 50 1013.7
20260830152056 83 191 4.3 10.4 0.00 0.00 0.00 51 1013.9
20260830151552 83 189 4.3 10.4 0.00 0.00 0.00 51 1013.9
20260830151052 82 155 4.3 9.6 0.00 0.00 0.00 52 1013.9
20260830150552 82 154 5.2 11.3 0.00 0.00 0.00 52 1013.9
20260830150055 81 201 6.1 11.3 0.00 0.00 0.00 53 1013.8
20260830145043 81 212 6.1 13.0 0.00 0.00 0.00 53 1014.0
20260830144543 81 186 7.0 13.0 0.00 0.00 0.00 54 1014.0
20260830144045 81 148 5.2 9.6 0.00 0.00 0.00 54 1014.0
20260830143542 80 179 4.3 10.4 0.00 0.00 0.00 55 1014.0
20260830143101 80 190 6.1 13.0 0.00 0.00 0.00 55 1014.0
20260830142542 80 198 6.1 12.2 0.00 0.00 0.00 55 1014.0
20260830142042 80 168 5.2 13.9 0.00 0.00 0.00 56 1014.1
20260830141543 79 189 7.8 13.9 0.00 0.00 0.00 56 1014.1
20260830141044 79 173 7.0 12.2 0.00 0.00 0.00 56 1014.1
20260830140541 79 185 7.8 12.2 0.00 0.00 0.00 56 1014.1
20260830140047 79 200 6.1 10.4 0.00 0.00 0.00 57 1014.1
20260830135053 78 176 5.2 10.4 0.00 0.00 0.00 58 1013.9
20260830134553 78 145 3.5 9.6 0.00 0.00 0.00 58 1014.0
20260830134053 78 179 4.3 9.6 0.00 0.00 0.00 58 1014.0
20260830133552 78 161 4.3 9.6 0.00 0.00 0.00 58 1014.0
20260830133052 78 173 3.5 8.7 0.00 0.00 0.00 58 1013.9
20260830132552 78 176 2.6 7.0 0.00 0.00 0.00 59 1013.9
20260830132052 77 168 3.5 7.0 0.00 0.00 0.00 59 1013.8
20260830131551 77 158 2.6 6.1 0.00 0.00 0.00 59 1013.9
20260830131052 77 149 1.7 6.1 0.00 0.00 0.00 59 1013.8
20260830130552 77 150 2.6 5.2 0.00 0.00 0.00 59 1013.8
20260830125040 77 156 2.6 6.1 0.00 0.00 0.00 60 1013.6
20260830124539 77 162 2.6 7.0 0.00 0.00 0.00 59 1013.5
20260830124039 77 181 2.6 9.6 0.00 0.00 0.00 59 1013.4
20260830123538 77 187 5.2 9.6 0.00 0.00 0.00 59 1013.4
20260830123044 77 191 5.2 9.6 0.00 0.00 0.00 59 1013.4
20260830122538 77 189 3.5 7.0 0.00 0.00 0.00 59 1013.5
20260830122041 77 181 3.5 8.7 0.00 0.00 0.00 59 1013.4
20260830121537 77 197 4.3 8.7 0.00 0.00 0.00 59 1013.4
20260830121040 77 193 4.3 7.8 0.00 0.00 0.00 59 1013.3
20260830120535 77 193 3.5 7.8 0.00 0.00 0.00 58 1013.2
20260830120035 77 177 3.5 7.8 0.00 0.00 0.00 58 1013.2
20260830115036 77 157 3.5 7.0 0.00 0.00 0.00 58 1013.1
20260830114533 77 210 3.5 7.0 0.00 0.00 0.00 57 1013.1
20260830114033 77 174 3.5 7.0 0.00 0.00 0.00 57 1013.1
20260830113532 77 183 3.5 7.0 0.00 0.00 0.00 57 1013.0
20260830113034 77 187 3.5 7.0 0.00 0.00 0.00 56 1013.0
20260830112532 77 180 3.5 7.0 0.00 0.00 0.00 56 1013.0
20260830112030 78 179 3.5 7.0 0.00 0.00 0.00 55 1013.0
20260830111530 78 193 2.6 7.8 0.00 0.00 0.00 55 1013.0
20260830111030 78 168 3.5 7.8 0.00 0.00 0.00 55 1013.1
20260830110530 78 187 2.6 7.8 0.00 0.00 0.00 54 1013.0
20260830110030 78 191 3.5 7.8 0.00 0.00 0.00 54 1012.9
20260830105028 78 183 2.6 6.1 0.00 0.00 0.00 53 1013.0
20260830104528 78 183 2.6 6.1 0.00 0.00 0.00 53 1013.0
20260830104027 79 187 2.6 6.1 0.00 0.00 0.00 52 1012.9
20260830103531 79 199 2.6 7.8 0.00 0.00 0.00 52 1012.9
20260830103027 79 183 2.6 5.2 0.00 0.00 0.00 51 1012.9
20260830102526 79 184 2.6 6.1 0.00 0.00 0.00 51 1012.9
20260830102025 79 175 3.5 8.7 0.00 0.00 0.00 50 1012.8
20260830101524 79 168 4.3 8.7 0.00 0.00 0.00 50 1012.7
20260830101024 80 186 2.6 6.1 0.00 0.00 0.00 49 1012.8
20260830100523 80 183 2.6 7.0 0.00 0.00 0.00 49 1012.9
20260830100025 80 196 2.6 7.8 0.00 0.00 0.00 48 1012.8
20260830095026 80 192 3.5 7.8 0.00 0.00 0.00 48 1012.7
20260830094530 80 189 3.5 7.8 0.00 0.00 0.00 47 1012.8
20260830094025 80 189 4.3 9.6 0.00 0.00 0.00 47 1012.8
20260830093524 81 196 5.2 13.0 0.00 0.00 0.00 47 1012.7
20260830093024 81 198 3.5 13.0 0.00 0.00 0.00 47 1012.7
20260830092522 81 200 4.3 9.6 0.00 0.00 0.00 46 1012.7
20260830092022 81 212 6.1 9.6 0.00 0.00 0.00 46 1012.7
20260830091522 81 168 4.3 12.2 0.00 0.00 0.00 46 1012.6
20260830091021 81 199 7.8 12.2 0.00 0.00 0.00 45 1012.6
20260830090519 82 162 5.2 13.0 0.00 0.00 0.00 45 1012.5
20260830090021 82 195 7.8 13.0 0.00 0.00 0.00 44 1012.5
20260830085017 82 189 6.1 12.2 0.00 0.00 0.00 44 1012.5
20260830084517 82 179 6.1 11.3 0.00 0.00 0.00 43 1012.4
20260830084017 82 192 5.2 11.3 0.00 0.00 0.00 43 1012.5
20260830083518 82 191 5.2 12.2 0.00 0.00 0.00 42 1012.5
20260830083015 82 185 6.1 13.9 0.00 0.00 0.00 42 1012.6
20260830082515 82 187 8.7 13.9 0.00 0.00 0.00 41 1012.6
20260830082012 82 215 7.0 12.2 0.00 0.00 0.00 41 1012.7
20260830081525 82 189 7.0 12.2 0.00 0.00 0.00 40 1012.7
20260830081011 82 196 5.2 12.2 0.00 0.00 0.00 40 1012.7
20260830080511 82 208 6.1 9.6 0.00 0.00 0.00 40 1012.8
20260830080011 82 179 5.2 9.6 0.00 0.00 0.00 40 1012.8
20260830075018 82 193 6.1 9.6 0.00 0.00 0.00 40 1012.8
20260830074523 82 191 3.5 7.8 0.00 0.00 0.00 39 1012.9
20260830074018 82 190 3.5 7.8 0.00 0.00 0.00 39 1012.9
20260830073518 82 170 3.5 7.8 0.00 0.00 0.00 39 1012.9
20260830073022 82 181 2.6 7.8 0.00 0.00 0.00 39 1012.9
20260830072518 82 158 2.6 6.1 0.00 0.00 0.00 39 1012.9
20260830072017 82 161 2.6 6.1 0.00 0.00 0.00 39 1012.9
20260830071517 82 166 3.5 5.2 0.00 0.00 0.00 39 1012.9
20260830071017 82 166 2.6 6.1 0.00 0.00 0.00 39 1012.9
20260830070516 82 185 2.6 6.1 0.00 0.00 0.00 39 1012.9
20260830070016 82 187 2.6 4.3 0.00 0.00 0.00 39 1013.0
20260830065010 82 189 1.7 4.3 0.00 0.00 0.00 39 1012.9
20260830064506 82 188 1.7 4.3 0.00 0.00 0.00 39 1013.0
20260830064005 83 187 2.6 5.2 0.00 0.00 0.00 38 1013.0
20260830063506 83 168 1.7 4.3 0.00 0.00 0.00 38 1013.0
20260830063010 83 181 1.7 5.2 0.00 0.00 0.00 38 1013.1
20260830062504 83 193 2.6 5.2 0.00 0.00 0.00 38 1013.1
20260830062006 83 169 2.6 7.8 0.00 0.00 0.00 38 1013.2
20260830061502 83 194 3.5 7.8 0.00 0.00 0.00 38 1013.1
20260830061002 84 169 2.6 5.2 0.00 0.00 0.00 37 1013.1
20260830060502 84 194 2.6 7.0 0.00 0.00 0.00 37 1013.1
20260830060101 84 186 3.5 7.0 0.00 0.00 0.00 37 1013.2
20260830055659 85 169 2.6 6.1 0.00 0.00 0.00 35 1013.2
20260830055058 85 164 2.6 7.8 0.00 0.00 0.00 35 1013.1
20260830054557 86 177 3.5 9.6 0.00 0.00 0.00 35 1013.0
20260830054056 86 196 4.3 8.7 0.00 0.00 0.00 35 1013.1
20260830053555 86 195 4.3 11.3 0.00 0.00 0.00 35 1013.1
20260830053057 86 199 7.0 11.3 0.00 0.00 0.00 34 1013.1
20260830052554 86 196 5.2 10.4 0.00 0.00 0.00 34 1013.1
20260830052052 86 192 4.3 9.6 0.00 0.00 0.00 34 1013.2
20260830051552 86 199 5.2 8.7 0.00 0.00 0.00 35 1013.2
20260830051051 85 189 3.5 7.0 0.00 0.00 0.00 35 1013.2
20260830050550 86 187 3.5 5.2 0.00 0.00 0.00 35 1013.2
20260830050049 86 189 2.6 4.3 0.00 0.00 0.00 34 1013.2
20260830045648 86 145 2.6 7.8 0.00 0.00 0.00 34 1013.1
20260830045051 87 191 2.6 7.8 0.00 0.00 0.00 33 1013.2
20260830044550 87 193 3.5 9.6 0.00 0.00 0.00 33 1013.2
20260830044048 87 193 5.2 9.6 0.00 0.00 0.00 33 1013.1
20260830043548 87 185 4.3 9.6 0.00 0.00 0.00 33 1013.1
20260830043048 87 188 6.1 8.7 0.00 0.00 0.00 32 1013.1
20260830042547 88 196 4.3 9.6 0.00 0.00 0.00 32 1013.1
20260830042047 88 199 5.2 10.4 0.00 0.00 0.00 32 1013.1
20260830041605 88 196 5.2 10.4 0.00 0.00 0.00 32 1013.1
20260830041146 88 189 5.2 10.4 0.00 0.00 0.00 31 1013.2
20260830040546 88 208 6.1 10.4 0.00 0.00 0.00 31 1013.1
20260830040047 88 191 5.2 9.6 0.00 0.00 0.00 31 1013.0
20260830035646 88 198 6.1 10.4 0.00 0.00 0.00 31 1013.0
20260830035052 89 187 7.0 10.4 0.00 0.00 0.00 31 1013.0
20260830034550 89 202 5.2 10.4 0.00 0.00 0.00 30 1013.0
20260830034048 88 208 6.1 10.4 0.00 0.00 0.00 30 1013.0
20260830033552 88 191 4.3 8.7 0.00 0.00 0.00 30 1013.0
20260830033052 88 191 3.5 8.7 0.00 0.00 0.00 30 1012.9
20260830032548 89 206 3.5 7.0 0.00 0.00 0.00 30 1012.9
20260830032048 89 187 2.6 7.0 0.00 0.00 0.00 30 1012.8
20260830031548 89 191 2.6 10.4 0.00 0.00 0.00 29 1012.7
20260830031049 89 210 5.2 10.4 0.00 0.00 0.00 29 1012.6
20260830030551 89 193 5.2 8.7 0.00 0.00 0.00 29 1012.6
20260830030113 89 193 4.3 8.7 0.00 0.00 0.00 29 1012.5
20260830025649 89 194 2.6 7.0 0.00 0.00 0.00 30 1012.4
20260830025045 89 194 2.6 7.0 0.00 0.00 0.00 30 1012.4
20260830024545 89 188 2.6 7.0 0.00 0.00 0.00 29 1012.3
20260830024048 90 188 2.6 7.0 0.00 0.00 0.00 29 1012.2
20260830023548 90 191 2.6 5.2 0.00 0.00 0.00 29 1012.1
20260830023051 90 196 2.6 5.2 0.00 0.00 0.00 29 1012.0
20260830022549 90 188 2.6 5.2 0.00 0.00 0.00 29 1011.9
20260830022045 91 187 2.6 5.2 0.00 0.00 0.00 28 1011.8
20260830021550 91 187 2.6 5.2 0.00 0.00 0.00 28 1011.6
20260830021045 91 194 2.6 7.0 0.00 0.00 0.00 27 1011.7
20260830020545 92 187 3.5 7.8 0.00 0.00 0.00 27 1011.6
20260830020051 92 190 4.3 8.7 0.00 0.00 0.00 26 1011.5
20260830015645 93 199 6.1 10.4 0.00 0.00 0.00 26 1011.4
20260830015041 93 200 7.0 10.4 0.00 0.00 0.00 26 1011.4
20260830014542 93 208 6.1 9.6 0.00 0.00 0.00 26 1011.3
20260830014042 93 199 5.2 11.3 0.00 0.00 0.00 26 1011.2
20260830013541 93 208 7.0 11.3 0.00 0.00 0.00 26 1011.2
20260830013042 93 204 7.8 12.2 0.00 0.00 0.00 26 1011.1
20260830012541 93 216 7.0 13.0 0.00 0.00 0.00 25 1011.1
20260830012141 93 218 7.0 13.0 0.00 0.00 0.00 26 1011.1
20260830011540 94 189 7.0 9.6 0.00 0.00 0.00 25 1011.0
20260830011040 94 208 6.1 9.6 0.00 0.00 0.00 25 1011.0
20260830010540 94 222 5.2 9.6 0.00 0.00 0.00 25 1011.0
20260830010040 94 206 6.1 9.6 0.00 0.00 0.00 25 1011.0
20260830005641 94 193 6.1 9.6 0.00 0.00 0.00 24 1011.0
20260830005040 95 222 4.3 9.6 0.00 0.00 0.00 24 1011.0
20260830004549 95 210 5.2 8.7 0.00 0.00 0.00 24 1011.0
20260830004043 95 225 4.3 9.6 0.00 0.00 0.00 24 1011.0
20260830003540 95 177 6.1 10.4 0.00 0.00 0.00 24 1011.0
20260830003045 95 214 6.1 11.3 0.00 0.00 0.00 24 1011.0
20260830002542 95 206 5.2 11.3 0.00 0.00 0.00 24 1010.9